Location: Apollinopolis Magna
(24.9792°N, 32.8772°E)
Time: 19:38:47
(UTC+00:00)

Cosmos 2333 - Pass Details

Date: 02 March 2021
Orbit: 829 x 867 km, 70.9° (Epoch: 09 April)

Event Time Altitude Azimuth Distance (km) Brightness Sun altitude
Rises 16:55:26 0° 191° (SSW) 3,357 7.5 -15.3°
Reaches altitude 10° 16:57:51 10° 189° (S) 2,430 6.7 -15.9°
Maximum altitude 17:03:23 70° 107° (ESE) 885 4.1 -17.1°
Drops below altitude 10° 17:09:00 10° 24° (NNE) 2,460 6.4 -18.4°
Sets 17:11:28 0° 22° (NNE) 3,403 7.1 -19.0°
